Skip Page Navigation
NASA JPL Caltech
NASA Logo - Jet Propulsion Laboratory + View the NASA Portal
+ Center for Near-Earth Object Studies
JPL Home Earth Solar System Stars & Galaxies Technology
JPL Solar System Dynamics
BODIES ORBITS EPHEMERIDES TOOLS PHYSICAL DATA DISCOVERY FAQ SITE MAP
JPL Small-Body Database Browser
Search: [ help ]  
413565 (2005 TY55)
Classification: Main-belt Asteroid          SPK-ID: 2413565
Ephemeris | Orbit Diagram | Orbital Elements | Mission Design | Physical Parameters | Discovery Circumstances ]

[ show orbit diagram ]
Orbital Elements at Epoch 2459000.5 (2020-May-31.0) TDB
Reference: JPL 19 (heliocentric ecliptic J2000)
 Element Value Uncertainty (1-sigma)   Units 
e .1630796399451297 5.1666e-08  
a 2.709534898763739 3.2249e-08 au
q 2.267664923054585 1.4915e-07 au
i 5.422985808253409 6.3546e-06 deg
node 156.4185392686585 5.2286e-05 deg
peri 244.0749942592425 5.5933e-05 deg
M 83.66707310553559 2.0902e-05 deg
tp 2458621.889524281813
(2019-May-18.38952428)
9.0989e-05 TDB
period 1629.073017608996
4.46
2.9084e-05
7.963e-08
d
yr
n .2209845698189606 3.9453e-09 deg/d
Q 3.151404874472893 3.7508e-08 au
  Orbit Determination Parameters
   # obs. used (total)      156  
   data-arc span      7146 days (19.56 yr)  
   first obs. used      2000-07-10  
   last obs. used      2020-02-02  
   planetary ephem.      DE431  
   SB-pert. ephem.      SB431-N16  
   condition code      0  
   norm. resid. RMS      .5137  
   source      ORB  
   producer      Otto Matic  
   solution date      2020-Feb-26 07:00:27  

Additional Information
 Earth MOID = 1.28176 au 
 Jupiter MOID = 2.27878 au 
 T_jup = 3.338 
[ show covariance matrix ]

Ephemeris | Orbit Diagram | Orbital Elements | Mission Design | Physical Parameters | Discovery Circumstances ]

Physical Parameter Table
Parameter Symbol Value Units Sigma Reference Notes
absolute magnitude H 16.7   n/a MPO455944  

413565 (2005 TY55)          Discovered 2005-Oct-06 by CSS at Catalina
Reference: Last Updated: 2014-11-10

Alternate Designations
 2005 TY55 = 2014 RW15 
Ephemeris | Orbit Diagram | Orbital Elements | Mission Design | Physical Parameters | Discovery Circumstances ]
ABOUT SSD CREDITS/AWARDS PRIVACY/COPYRIGHT GLOSSARY LINKS
FirstGov 2020-Oct-24 15:57 UT
(server date/time)  
NASA Home Page
Site Manager:   Ryan S. Park
Webmaster  Alan B. Chamberlin